Location: Newark
(43.5831°N, 21.3381°E)
Time: 19:19:15
(UTC+00:00)

Envisat - Pass Details

Date: 18 December 2019
Orbit: 764 x 766 km, 98.1° (Epoch: 28 January)

Event Time Altitude Azimuth Distance (km) Brightness Sun altitude
Rises 04:42:36 0° 21° (NNE) 3,242 6.3 -13.9°
Reaches altitude 10° 04:45:07 10° 31° (NNE) 2,311 5.6 -13.4°
Maximum altitude 04:49:45 35° 96° (E) 1,229 4.8 -12.7°
Drops below altitude 10° 04:54:21 10° 162° (SSE) 2,295 6.0 -11.9°
Sets 04:56:49 0° 171° (S) 3,216 6.7 -11.5°
